This is the latest recevied weather packets stored in our database for station/object KJ5SC. If no packets are shown the sender has not sent any weather packets the latest 10 day(s).
| Time | Temp. | Humidity | Pressure | Rain* | Wind** | Luminosity | Snow |
|---|---|---|---|---|---|---|---|
| 1787870931 | 32.78° C | 57% | 1014.3 hPa | 0 mm | - | 62 W/m² | - |
| 1787870630 | 32.78° C | 57% | 1014.4 hPa | 0 mm | - | 59 W/m² | - |
| 1787870326 | 32.78° C | 56% | 1014.3 hPa | 0 mm | - | 79 W/m² | - |
| 1787870021 | 33.33° C | 56% | 1014.2 hPa | 0 mm | - | 107 W/m² | - |
| 1787869720 | 33.33° C | 56% | 1014.4 hPa | 0 mm | - | 103 W/m² | - |
| 1787869420 | 32.78° C | 57% | 1014.1 hPa | 0 mm | - | 95 W/m² | - |
| 1787869114 | 32.78° C | 58% | 1013.9 hPa | 0 mm | - | 88 W/m² | - |
| 1787868813 | 32.78° C | 58% | 1013.9 hPa | 0 mm | - | 76 W/m² | - |
| 1787868512 | 32.78° C | 59% | 1014 hPa | 0 mm | - | 73 W/m² | - |
| 1787868211 | 32.22° C | 60% | 1014.1 hPa | 0 mm | - | 78 W/m² | - |
| 1787867907 | 32.22° C | 59% | 1013.9 hPa | 0 mm | - | 83 W/m² | - |
| 1787867603 | 32.22° C | 59% | 1014.4 hPa | 0 mm | - | 81 W/m² | - |
| 1787867302 | 32.22° C | 60% | 1014.6 hPa | 0 mm | - | 77 W/m² | - |
| 1787866999 | 32.22° C | 61% | 1014.6 hPa | 0 mm | - | 73 W/m² | - |
| 1787866694 | 32.22° C | 62% | 1014.5 hPa | 0 mm | - | 82 W/m² | - |
| 1787866392 | 32.78° C | 59% | 1014.6 hPa | 0 mm | - | 51 W/m² | - |
| 1787866087 | 33.33° C | 57% | 1014.6 hPa | 0 mm | - | 36 W/m² | - |
| 1787865782 | 33.33° C | 57% | 1014.6 hPa | 0 mm | - | 47 W/m² | - |
| 1787865477 | 33.89° C | 56% | 1014.6 hPa | 0 mm | - | 57 W/m² | - |
| 1787865171 | 33.89° C | 56% | 1014.5 hPa | 0 mm | - | 103 W/m² | - |
| 1787864868 | 33.33° C | 57% | 1014.6 hPa | 0 mm | - | 210 W/m² | - |
| 1787864568 | 33.89° C | 56% | 1014.8 hPa | 0 mm | - | 140 W/m² | - |
| 1787864263 | 33.89° C | 55% | 1014.7 hPa | 0 mm | - | 84 W/m² | - |
| 1787863957 | 34.44° C | 53% | 1014.7 hPa | 0 mm | - | 104 W/m² | - |
| 1787863656 | 35.56° C | 51% | 1014.9 hPa | 0 mm | - | 51 W/m² | - |
* Rain latest hour (hover to see other rain measurements)
** Current wind speed in m/s (hover to see current wind gust speed)